Regional Weather Roundup
Issued by NWS Green Bay, WI

Home | Current Version | Previous Version | Text Only | Print | Product List | Glossary On
Versions: 1 2 3 4 5 6 7 8 9 10 11 12 13 14 15 16 17 18 19 20 21 22 23 24 25 26 27 28 29 30 31 32 33 34 35 36 37 38 39 40 41 42 43 44 45 46 47 48 49 50
000
ASUS43 KGRB 250911
RWRGRB

NORTH-CENTRAL AND NORTHEAST WISCONSIN REGIONAL WEATHER ROUNDUP
NATIONAL WEATHER SERVICE GREEN BAY WI
400 AM CDT SUN SEP 25 2016

WIZ005-009-010>012-018-019-251000-
NORTH CENTRAL WISCONSIN

CITY           SKY/WX    TMP DP  RH WIND       PRES   REMARKS
IRONWOOD       CLOUDY    60  57  89 VRB5      30.02S
MANITOWISH WTR CLOUDY    58  57  96 SE12      30.05F
ARBOR VITAE    CLOUDY    59  55  87 S10       30.07F
EAGLE RIVER    CLOUDY    56  51  80 SE5       30.09F
LAND O LAKES   CLOUDY    56  52  85 S6        30.11F
RHINELANDER    CLOUDY    58  55  90 SE7       30.10F
PHILLIPS       CLOUDY    60  58  92 SE9       30.04F
ANTIGO         CLOUDY    55  53  94 CALM      30.11F
TOMAHAWK       MOCLDY    56  53  89 SE6       30.09S
MERRILL        MOCLDY    56  55  94 SE6       30.10F
$$

WIZ013-073-251000-
NORTHEAST WISCONSIN

CITY           SKY/WX    TMP DP  RH WIND       PRES   REMARKS
IRON MOUNTAIN  CLOUDY    55  50  83 SE3       30.11F
MARINETTE      CLOUDY    62  56  80 S9        30.13F
OCONTO         CLOUDY    61  57  87 SE7       30.12S
$$

WIZ017-030-035>037-045-251000-
CENTRAL WISCONSIN

CITY           SKY/WX    TMP DP  RH WIND       PRES   REMARKS
MEDFORD        CLOUDY    58  58 100 SE9G17    30.06F
WAUSAU         MOCLDY    56  54  93 E7        30.07F
MOSINEE        PTCLDY    54  54 100 E7        30.09F
MARSHFIELD     MOCLDY    58  55  90 SE8       30.05F
WISC RAPIDS    CLOUDY    58  57  97 SE6       30.07F
STEVENS POINT  PTCLDY    55  55 100 SE5       30.09F
WAUPACA        CLOUDY    57  56  97 CALM      30.10F
SHAWANO        CLOUDY    62  57  83 E3        30.11F
CLINTONVILLE   NOT AVBL
WAUTOMA        CLOUDY    56  56 100 NE3       30.08F
$$

WIZ038-039-048-051-251000-
FOX VALLEY

CITY           SKY/WX    TMP DP  RH WIND       PRES   REMARKS
NWS GREEN BAY  CLOUDY    61  59  93 SE6       30.11F
APPLETON       CLEAR     61  59  94 SE7       30.08F
OSHKOSH        PTCLDY    60  57  89 CALM      30.09F
FOND DU LAC    CLOUDY    62  59  90 SE6       30.09F
$$

WIZ022-050-052-251000-
EAST CENTRAL WISCONSIN

CITY           SKY/WX    TMP DP  RH WIND       PRES   REMARKS
EPHRAIM        CLOUDY    61  55  82 S8        30.13S
WASHINGTON ISL CLOUDY    62  55  77 S6        30.13F
STURGEON BAY   CLOUDY    61  55  81 SE8       30.14S
MANITOWOC      MOCLDY    63  58  83 SE9       30.13F
SHEBOYGAN      CLOUDY    63  58  83 SE6       30.12F
$$

LMZ563-521-522-541>543-251000-
LAKESHORE

STATION/POSITION TIME  TEMP    WIND        PRES    VSBY  WAVE
                       AIR SEA DIR/SP/G                  HT/PER
                 (UTC) (F)     (DEG/KT/KT) (MB)    (MI)  (FT/S)
SHEBOYGAN LKSHOR 0900   64     150/ 12/ 13 1019.6F
KEWAUNEE LKSHORE 0800   63     150/ 11/ 16 1020.1F
NORTHPORT PIER   0800   64     150/ 10/ 16 1020.7F
N MID LAKE BUOY  0850   62 67  160/ 16/ 19 1020.4F         3/ 4
S GREEN BAY BUOY 0800   63 66  130/ 12/ 14 1019.7F
SISTER BAY LKSHO 0838   63     170/ 11/ 15   N/A
CHAMBERS ISLAND  0800   63     130/  6/ 12 1020.0F
MENOMINEE LKSHOR 0800   64     150/ 15/ 20 1019.3F
$$




USA.gov is the U.S. government's official web portal to all federal, state and local government web resources and services.